www.pogodaiklimat.ru

Погода и климат >> Архив погоды >> Россия >> Хабаровский край >> Литовко


ПОГОДА в Литовко

  • Прогноз погоды в Литовко
  • Монитор погоды в Литовко

АРХИВ ПОГОДЫ в Литовко

Время (UTC), дата Ветер
(напр.,м/с)
 
Видим.   Явления Облачность Т
(С)
Тd
(С)
f
(%)
Тe
(С)
Тes
(С)
Комфортность P
(гПа)
Po
(гПа)
Тmin
(С)
Tmax
(С)
R
(мм)
R24
(мм)
S
(см)
12 9.07 С 1 50 км зарница 10/10 600 м
[Cb cap]
+19.8 +16.8 83 +23 +23 комфорт 1011.0 1002.7
15 9.07 штиль 0 50 км 10/4 600 м
[Cb calv Cs]
+18.7 +17.1 90 +20 +20 1011.6 1003.2
18 9.07 СВ 1 50 км 3/0
[Ci fib]
+16.7 +15.6 93 +18 +18 1011.7 1003.4
21 9.07 СВ 1 20 км в посл. час туман 10/10 600 м
[Sc]
+18.5 +17.4 93 +20 +20 1013.2 1004.9 +16.7
00 10.07 СВ 1 20 км {туман} 10/9 600 м
[Sc Ci fib]
+21.9 +16.7 72 +26 +27 душно 1013.4 1005.2
03 10.07 ЮЗ 1 20 км 8/6 600 м
[Cb calv Cs]
+25.7 +18.5 64 +30 +38 душно 1012.5 1004.4
06 10.07 ЮВ 1 20 км 6/4 600 м
[Cu med, cong Ci fib]
+28.8 +18.9 55 +34 +41 очень
душно
1011.0 1003.0
09 10.07 Ю 1 50 км 8/3 600 м
[Cu med, cong Cs]
+27.9 +19.5 60 +34 +35 очень
душно
1010.2 1002.2 +29.8
15 10.07 штиль 0 50 км 3/0
[Ci fib]
+19.4 +17.5 89 +21 +21 комфорт 1010.9 1002.7
18 10.07 Ю 1 50 км 3/3 600 м
[Sc]
+17.9 +16.5 92 +19 +19 1010.7 1002.4
21 10.07 З 1 20 км 6/1 600 м
[Sc Ci fib]
+21.4 +19.9 91 +26 +28 душно 1010.9 1002.7 +17.1
00 11.07 З 1 20 км 4/1 600 м
[Sc Ci fib]
+27.9 +19.0 58 +33 +44 очень
душно
1009.7 1001.7
06 11.07 ЮЗ 3 50 км 10/1 600 м
[Cb calv Cs]
+29.4 +14.5 40 +31 +38 жарко 1006.8 998.8
09 11.07 ЮЗ 2 50 км 10/0
[]
+28.2 +16.4 49 +32 +33 душно 1006.1 998.1 +30.7
12 11.07 З 1 50 км 10/1 600 м
[Sc Cs]
+23.7 +17.0 66 +27 +27 жарко 1006.0 997.9
15 11.07 З 2 50 км 4/0
[Ci fib]
+21.4 +17.0 76 +25 +25 комфорт 1005.9 997.7
21 11.07 штиль 0 20 км 8/0
[Cs]
+18.3 +15.7 85 +19 +21 1005.6 997.3 +17.0
03 12.07 В 1 50 км 10/3 600 м
[Cu med, cong Cs]
+28.1 +17.9 54 +33 +44 очень
душно
1004.1 996.1
06 12.07 С 1 50 км 8/6 600 м
[Cb calv Cs]
+27.5 +17.3 54 +32 +36 очень
душно
1002.6 994.6
09 12.07 В 1 20 км гроза без осадков 9/8 600 м
[Cb cap Ci sp]
+25.1 +19.3 70 +30 +31 душно 1003.3 995.3 +30.0
12 12.07 С 1 50 км {гроза} 4/3 600 м
[Cb calv Ci fib]
+19.4 +17.5 89 +23 +23 комфорт 1004.9 996.7
15 12.07 штиль 0 50 км 10/10 600 м
[Cb calv]
+19.1 +17.1 88 +21 +21 комфорт 1005.2 997.0
18 12.07 С 1 50 км 10/10 600 м
[Cb calv]
+18.0 +16.1 89 +19 +19 1005.3 997.0
21 12.07 штиль 0 10 км 10/10 600 м
[Sc]
+19.1 +16.5 85 +21 +21 комфорт 1006.0 997.7 +17.7
00 13.07 СВ 1 50 км 10/10 600 м
[Cb calv]
+21.8 +16.8 73 +26 +26 душно 1006.5 998.3
03 13.07 СВ 2 50 км 9/8 600 м
[Cb calv Ci sp]
+24.4 +16.9 63 +28 +31 душно 1005.7 997.6
09 13.07 В 2 50 км 6/3 600 м
[Cb calv Ci fib]
+23.7 +16.8 65 +27 +28 жарко 1004.7 996.6 +27.2
12 13.07 С 1 50 км 10/8 600 м
[Cb calv Cs]
+20.2 +16.4 79 +24 +24 комфорт 1005.9 997.7
15 13.07 СВ 1 50 км 8/8 600 м
[Sc]
+19.1 +15.7 81 +22 +22 комфорт 1006.5 998.2
18 13.07 СВ 1 50 км 10/8 600 м
[Sc Cs]
+19.0 +15.6 81 +21 +21 комфорт 1006.7 998.5
21 13.07 штиль 0 50 км 10/8 600 м
[Sc Cs]
+18.5 +15.1 81 +19 +20 1007.6 999.3 +18.0
03 14.07 СВ 1 50 км 8/8 600 м
[Cb calv Ci fib]
+25.0 +16.8 60 +29 +33 душно 1007.6 999.5
06 14.07 В 2 50 км 9/9 600 м
[Cb calv]
+25.2 +17.5 62 +29 +30 душно 1007.1 999.0
09 14.07 СВ 1 50 км 9/4 600 м
[Sc Ci sp]
+26.0 +17.2 58 +30 +31 душно 1006.9 998.8 +27.1
12 14.07 С 1 50 км 9/3 600 м
[Sc Ci sp]
+19.8 +17.2 85 +23 +23 комфорт 1008.7 1000.4
21 14.07 ЮВ 1 50 км 8/8 600 м
[Sc]
+18.0 +14.5 80 +19 +20 1010.9 1002.5 +17.2
09 15.07 Ю 1 50 км 8/6 600 м
[Cb calv Ci fib]
+25.0 +17.5 63 +29 +30 душно 1009.7 1001.6 +27.9
21 15.07 Ю 1 50 км 3/3 600 м
[Cb calv]
+19.6 +16.6 83 +23 +24 комфорт 1012.0 1003.7 +16.0

 

Местоположение метеостанции Литовко (Хабаровский край, Россия): широта 49.23 долгота 135.10 высота над уровнем моря 71 м.

В архиве по умолчанию представлена погода в Литовко за последнюю неделю. Архивные данные за месяц целиком и за предыдущие месяцы, начиная с января 2011 года, Вы можете получить, выбрав интересующий диапазон дат из раскрывающегося списка и нажав кнопку "Ввод!".


*Определитесь, кто Вы:
робот инопланетянин человек

Внимание! Время в таблицах - всемирное. Для получения местного времени необходимо прибавить поправку, которая равна 10 ч.

Смотрите также архив погоды в соседних городах и на ближайших метеорологических станциях:

Погода в Елабуге (Хабаровский край, Россия) (68 км)
Погода на Хабаровск Мосту (Хабаровский край, Россия) (78 км)
Погода в Хабаровске (Хабаровский край, Россия) (79 км)
Погода в Хабаровске Агромет (Хабаровский край, Россия) (79 км)
Погода в Хабаровске АМС (Хабаровский край, Россия) (81 км)
Погода в Куре (Хабаровский край, Россия) (86 км)
Погода в Хабаровске 21 км (Хабаровский край, Россия) (86 км)
Погода в Хабаровске Аэр. Большой (Хабаровский край, Россия) (87 км)
Погода в Князе-Волконском (Хабаровский край, Россия) (88 км)
Погода в Бычихе (Хабаровский край, Россия) (105 км)

Пояснения к столбцам:

Ветер - указаны скорость ветра в м/с - средняя за 10 мин, порывы в срок и между сроками (в фигурных скобках) и направление, откуда дует ветер: С - северный, СВ - северо-восточный, В - восточный, ЮВ - юго-восточный, Ю - южный, ЮЗ - юго-западный, З - западный, СЗ - северо-западный.
Видимость - горизонтальная дальность видимости в метрах или километрах. При видимости от 1 до 10 км при отсутствии осадков обычно наблюдается дымка, при ухудшении видимости до 1 км и менее - туман. В сухую погоду видимость может ухудшаться дымом, пылью или мглою.
Явления - указаны атмосферные явления, наблюдавшиеся в срок или в последний час перед сроком; фигурными скобками обозначены явления, наблюдавшиеся между сроками (за 1-3 часа до срока); квадратными скобками обозначены град или гололедные отложения с указанием их диаметра в мм.
Облачность - указаны через наклонную черту общая и нижняя облачность в баллах и высота нижней границы облаков в метрах; квадратными скобками обозначены формы облаков: Ci - перистые, Cs - перисто-слоистые, Cc - перисто-кучевые, Ac - высококучевые, As - высокослоистые, Sc - слоисто-кучевые, Ns - слоисто-дождевые, Cu - кучевые, Cb - кучево-дождевые. Подробнее классификацию облаков см. в Атласе облаков (PDF).
T - Температура воздуха - температура, измеренная на высоте 2 м над землей.
Td - Температура точки росы - температура, при понижении до которой содержащийся в воздухе водяной пар достигнет насыщения.
f - Относительная влажность воздуха - влажноcть воздуха, измеренная на высоте 2 м над землей.
Te - Эффективная температура - температура, которую ощущает одетый по сезону человек в тени. Характеристика душности погоды. При расчете учитывается влияние влажности воздуха и скорости ветра на теплоощущения человека.
Tes - Эффективная температура на солнце - температура, которую ощущает человек, с поправкой на солнечный нагрев. Характеристика знойности погоды. Зависит от высоты солнца над горизонтом, облачности и скорости ветра. Ночью, в пасмурную погоду, а также при ветре 12 м/с и более поправка равна нулю.
P - Атмосферное давление - приведенное к уровню моря атмосферное давление.
Po - Атмосферное давление - измеренное на уровне метеостанции атмосферное давление.
Tmin - Минимальная температура - минимум температуры воздуха на высоте 2 м над землей.
Tmax - Максимальная температура - максимум температуры воздуха на высоте 2 м над землей.
R - Количество осадков - Количество выпавших осадков за период времени, мм. При наведении курсора мыши на число - период времени, за который выпало указанное количество осадков.
R24 - Количество осадков - Количество выпавших осадков за 24 часа, мм.
S - Снежный покров - Высота снежного покрова, см. При наведении курсора мыши на число - состояние снежного покрова и степень покрытия местности в баллах.